Find Insat 3D

NORAD ID: 39216 Int'l Des: 2013-038 Owner: ISRO Country: IN operational
HEOCIRCULARGSO

Live-Position

3D-Globus wird geladen...

Über Insat 3D

Beschreibung wird geladen...

Nächste Überflüge

Passes for default location (London). Set your location on the main map for personalized predictions.

Höhenverlauf

Loading altitude history...

Zweizeiliger Elementsatz

1 39216U 13038B 26106.27266983 -.00000331 00000-0 00000-0 0 9992
2 39216 1.7653 83.2903 0001302 257.4651 91.3404 1.00269900 46453
Epoch: 16. Apr. 2026 • Age: 7 hours

Aktueller Status

Höhe 35791.9 km
Geschwindigkeit 3.07 km/s
Subsatellitenpunkt 1.74°N, 129.5°E
Startdatum 25. Juli 2013
Alter 12.7 years
Typ other

Technische Details

Klassifizierung Payload
Masse 2090.00 kg
Trockenmasse 935.00 kg
Gesamtmasse 2090.00 kg
Länge 2.40 m
Durchmesser 1.60 m
Spannweite 9.50 m
Form Box+2 pan
Hersteller ISRO
Bus-Typ I2K
Phasenstatus In Orbit
Besitzer/Staat ISRO/IN

Most Searched